[[{"header":{"parameterUnit":"m.s-1","parameterCategory":1,"la1":30.2991,"la2":30.254,"lo1":-89.0895,"lo2":-89.0444,"dy":0.0017,"dx":0.0017,"nx":28,"ny":28,"refTime":"2026-02-10T03:00:00:Z","depth":0,"parameterNumber":2,"parameterNumberName":"U-component_of_WINDS"},"data":[0,0,0,0,0,0,0,0,0,0,0,0,0,0,0,0,0,0,0,0,0,0,0,0,0,0,0,0,0,0,0,0,0,0,0,0,0,0,0,0,0,0,0,0,0,0,0,0,0,0,0,0,0,0,0,0,0,0,1.4895,1.4895,0,1.4898,1.4898,1.4898,1.4902,1.4902,1.4902,1.4902,1.4905,1.4905,1.4905,0,0,0,0,0,0,0,0,0,0,0,0,0,1.4893,1.4893,1.4895,1.4895,1.4895,1.4898,1.4898,1.4898,1.4902,1.4902,1.4902,1.4902,1.4905,1.4905,1.4905,0,0,0,0,0,0,0,0,0,0,0,0,0,1.4895,1.4893,1.4895,1.4897,1.4897,1.4898,1.4898,1.4898,1.4902,1.4902,1.4902,1.4902,1.4905,1.4905,1.4905,1.4903,0,0,1.4905,1.4905,0,0,0,0,0,0,0,0,1.4894,1.4895,1.4897,1.4897,1.4897,1.4899,1.4898,1.49,1.4902,1.49,1.4902,1.4902,1.4903,1.4903,1.4904,1.4903,1.4903,1.4905,1.4905,1.4905,1.4905,0,0,0,0,0,0,0,1.4894,1.4895,1.4896,1.4897,1.4897,1.4898,1.4899,1.4898,1.4901,1.49,1.4901,1.4901,1.4903,1.4904,1.4904,1.4903,1.4905,1.4905,1.4905,1.4905,1.4903,1.4903,0,0,0,0,0,0,1.4894,1.4894,1.4896,1.4896,1.4896,1.4898,1.4899,1.4899,1.4901,1.4901,1.4901,1.4901,1.4903,1.4904,1.4904,1.4902,1.4905,1.4905,1.4905,1.4903,1.4903,1.4903,0,0,0,0,0,0,1.4894,1.4894,1.4896,1.4895,1.4896,1.4898,1.4898,1.4899,1.4899,1.4901,1.4902,1.4901,1.4904,1.4904,1.4904,1.4903,1.4905,1.4905,1.4903,1.4903,1.4903,1.4899,0,0,0,0,0,0,1.4894,1.4894,1.4893,1.4895,1.4896,1.4895,1.4898,1.4899,1.4899,1.4899,1.4901,1.4902,1.4904,1.4903,1.4904,1.4903,1.4905,1.4903,1.4903,1.4903,1.4899,1.4899,1.4899,0,0,0,0,0,1.4894,1.4892,1.4893,1.4893,1.4894,1.4895,1.4895,1.4897,1.4899,1.4898,1.49,1.4902,1.4903,1.4903,1.4904,1.4903,1.4903,1.4903,1.4903,1.49,1.4899,1.4899,0,0,0,0,0,0,1.4889,1.4892,1.4893,1.4892,1.4893,1.4896,1.4895,1.4897,1.4897,1.4898,1.49,1.4901,1.49,1.4901,1.4902,1.4901,1.4903,1.4903,1.4901,1.49,1.49,1.49,1.4905,0,0,0,0,0,1.4888,1.4888,1.489,1.4889,1.489,1.4892,1.4892,1.4894,1.4895,1.4896,1.4898,1.4899,1.49,1.49,1.4901,1.49,1.49,1.4899,1.4899,1.4898,1.4898,1.4899,1.4898,1.4902,1.4902,1.4902,0,0,1.4885,1.4887,1.4887,1.4888,1.4889,1.489,1.4892,1.4892,1.4893,1.4896,1.4896,1.4897,1.4899,1.4899,1.4898,1.4899,1.4897,1.4898,1.4898,1.4898,1.4898,1.4898,1.4898,1.4902,1.4902,1.4902,0,0,1.4881,1.4882,1.4881,1.4882,1.4884,1.4886,1.4886,1.4888,1.489,1.489,1.4892,1.4893,1.4894,1.4895,1.4896,1.4893,1.4895,1.4893,1.4891,1.4892,1.4891,1.4891,1.4891,1.489,1.4893,1.4893,1.4893,0,1.4877,1.4878,1.488,1.4881,1.4881,1.4885,1.4884,1.4885,1.4887,1.4888,1.4889,1.4891,1.4892,1.4893,1.4892,1.4892,1.4893,1.4893,1.4891,1.4891,1.4891,1.489,1.489,1.4893,1.4893,1.4893,1.4893,0,1.4874,1.4874,1.4874,1.4876,1.4877,1.4876,1.4879,1.488,1.4882,1.4883,1.4884,1.4886,1.4887,1.4888,1.4889,1.4888,1.4889,1.4891,1.4892,1.489,1.489,1.489,1.4893,1.4893,1.4893,1.4893,0,0,1.4866,1.4871,1.487,1.4872,1.4875,1.4875,1.4875,1.4877,1.4878,1.4879,1.488,1.4881,1.4883,1.4883,1.4885,1.4886,1.4884,1.4887,1.4887,1.4887,1.4884,1.4883,1.4883,1.4885,1.4885,1.4885,1.4884,0,1.4863,1.4863,1.4866,1.4866,1.4867,1.487,1.4871,1.4873,1.4875,1.4876,1.4878,1.4879,1.4881,1.4882,1.4882,1.4884,1.4884,1.4884,1.4886,1.4886,1.4886,1.4883,1.4881,1.488,1.4884,1.4884,1.4884,0,1.4859,1.486,1.4861,1.4864,1.4864,1.4865,1.4867,1.4868,1.487,1.4872,1.4873,1.4876,1.4877,1.4878,1.488,1.488,1.4881,1.4883,1.4883,1.4883,1.4885,1.4883,1.488,1.4879,1.4884,1.4884,1.4884,0,1.4854,1.4856,1.4857,1.4858,1.4862,1.4862,1.4864,1.4866,1.4867,1.4869,1.487,1.4872,1.4873,1.4875,1.4878,1.4879,1.4879,1.4881,1.4881,1.4881,1.4881,1.4881,1.4878,1.4881,1.4881,1.4881,1.4881,0,1.485,1.485,1.4855,1.4855,1.4855,1.4859,1.4859,1.4861,1.4864,1.4865,1.4868,1.4869,1.4873,1.4874,1.4876,1.4878,1.4878,1.488,1.488,1.4879,1.4879,1.488,1.4881,1.4881,1.4881,1.4881,1.4881,0,1.4844,1.4848,1.4849,1.4852,1.4853,1.4854,1.4857,1.4858,1.486,1.4862,1.4862,1.4866,1.4868,1.4871,1.4874,1.4876,1.4877,1.4878,1.4876,1.4876,1.4876,1.4876,1.4873,1.4873,1.4877,1.4877,1.4876,0,1.4842,1.4842,1.4846,1.4847,1.4849,1.485,1.4852,1.4855,1.4857,1.486,1.486,1.4863,1.4865,1.4868,1.4871,1.4873,1.4875,1.4874,1.4875,1.4874,1.4875,1.4875,1.4875,1.4873,1.4873,1.4873,1.4873,0,1.4837,1.4839,1.4841,1.4843,1.4845,1.4847,1.4849,1.485,1.4854,1.4855,1.4858,1.4859,1.4862,1.4865,1.4868,1.487,1.4872,1.4873,1.4873,1.4872,1.4871,1.4872,1.4875,1.4873,1.4873,1.4873,1.4873,1.4873,1.4833,1.4834,1.4837,1.4839,1.4841,1.4844,1.4845,1.4848,1.4849,1.4852,1.4854,1.4857,1.486,1.4864,1.4866,1.4868,1.4869,1.4869,1.4869,1.4869,1.4869,1.4871,1.4869,1.4869,1.4869,1.4869,1.4869,0,1.4829,1.4832,1.4833,1.4837,1.4839,1.4841,1.4844,1.4845,1.4847,1.485,1.4852,1.4855,1.4857,1.4861,1.4864,1.4865,1.4866,1.4866,1.4866,1.4866,1.4868,1.4868,1.4865,1.4865,1.4865,1.4865,1.4865,1.4865,1.4827,1.4829,1.4831,1.4834,1.4836,1.4838,1.484,1.4842,1.4844,1.4848,1.485,1.4852,1.4855,1.4859,1.4861,1.4862,1.4863,1.4863,1.4864,1.4866,1.4866,1.4866,1.4866,1.4863,1.4863,1.4862,1.4862,1.4862]},{"header":{"parameterUnit":"m.s-1","parameterCategory":1,"la1":30.2991,"la2":30.254,"lo1":-89.0895,"lo2":-89.0444,"dy":0.0017,"dx":0.0017,"nx":28,"ny":28,"refTime":"2026-02-10T03:00:00:Z","depth":0,"parameterNumber":3,"parameterNumberName":"V-component_of_WINDS"},"data":[0,0,0,0,0,0,0,0,0,0,0,0,0,0,0,0,0,0,0,0,0,0,0,0,0,0,0,0,0,0,0,0,0,0,0,0,0,0,0,0,0,0,0,0,0,0,0,0,0,0,0,0,0,0,0,0,0,0,0.677,0.677,0,0.6768,0.6768,0.6768,0.6757,0.6756,0.6756,0.6756,0.6752,0.6753,0.6753,0,0,0,0,0,0,0,0,0,0,0,0,0,0.6761,0.6762,0.677,0.677,0.677,0.6768,0.6768,0.6768,0.6757,0.6756,0.6756,0.6756,0.6752,0.6753,0.6753,0,0,0,0,0,0,0,0,0,0,0,0,0,0.6763,0.6762,0.677,0.6764,0.6764,0.6768,0.6768,0.6768,0.6757,0.6756,0.6756,0.6756,0.6752,0.6753,0.6753,0.6762,0,0,0.6754,0.6754,0,0,0,0,0,0,0,0,0.6763,0.6763,0.6765,0.6765,0.6764,0.6762,0.6764,0.6766,0.6757,0.6759,0.6756,0.6755,0.6756,0.6756,0.6756,0.6762,0.6762,0.6754,0.6754,0.6754,0.6754,0,0,0,0,0,0,0,0.6763,0.6763,0.6769,0.6765,0.6764,0.6761,0.676,0.6764,0.676,0.6759,0.6758,0.6758,0.6756,0.6756,0.6756,0.6762,0.6754,0.6754,0.6754,0.6754,0.6774,0.6774,0,0,0,0,0,0,0.6764,0.6763,0.6769,0.6769,0.6762,0.6761,0.6761,0.6763,0.676,0.6759,0.6759,0.6758,0.6756,0.6756,0.6756,0.6766,0.6754,0.6754,0.6754,0.6773,0.6774,0.6774,0,0,0,0,0,0,0.6764,0.6764,0.6769,0.6766,0.6766,0.6762,0.6764,0.6763,0.6764,0.6759,0.6758,0.676,0.6756,0.6756,0.6761,0.6765,0.6754,0.6754,0.6773,0.6773,0.6774,0.6786,0,0,0,0,0,0,0.6763,0.6764,0.6769,0.6766,0.6767,0.6775,0.6765,0.6764,0.6765,0.6763,0.6761,0.676,0.6755,0.676,0.6761,0.6766,0.6755,0.6772,0.6773,0.6774,0.6785,0.6787,0.6789,0,0,0,0,0,0.6763,0.6772,0.6769,0.677,0.6772,0.6775,0.6775,0.677,0.6765,0.6769,0.6766,0.676,0.6765,0.6761,0.6761,0.6766,0.6772,0.6773,0.6774,0.6784,0.6787,0.6788,0,0,0,0,0,0,0.6776,0.6772,0.6768,0.6777,0.6777,0.6773,0.6778,0.6773,0.6774,0.6773,0.6766,0.6765,0.6771,0.6769,0.6765,0.6774,0.6767,0.6768,0.6775,0.6777,0.6779,0.6779,0.6755,0,0,0,0,0,0.678,0.6783,0.6779,0.6788,0.6787,0.6783,0.6784,0.678,0.6779,0.6779,0.6776,0.6774,0.6775,0.6776,0.6777,0.6785,0.6783,0.6788,0.679,0.6791,0.6792,0.6794,0.6796,0.6777,0.6777,0.6777,0,0,0.6788,0.6786,0.6789,0.679,0.6789,0.6792,0.6783,0.6786,0.6788,0.6779,0.6783,0.6781,0.6779,0.6785,0.6787,0.6783,0.6797,0.6792,0.6794,0.6794,0.6795,0.6797,0.6799,0.6777,0.6777,0.6777,0,0,0.6803,0.6803,0.6809,0.6808,0.6806,0.6803,0.6804,0.6802,0.68,0.6804,0.6797,0.6798,0.6801,0.6799,0.6798,0.6811,0.6806,0.6812,0.682,0.6822,0.6824,0.6825,0.6829,0.683,0.6813,0.6813,0.6813,0,0.6813,0.6818,0.6813,0.6816,0.6816,0.6808,0.6813,0.6813,0.6811,0.6811,0.6807,0.6809,0.6807,0.6812,0.6815,0.6815,0.6815,0.6812,0.6824,0.6826,0.6827,0.683,0.6831,0.6813,0.6813,0.6813,0.6813,0,0.6829,0.6832,0.6837,0.6836,0.6837,0.6841,0.6836,0.6837,0.6832,0.6829,0.6832,0.683,0.6829,0.683,0.6826,0.6833,0.6831,0.6826,0.6818,0.6829,0.6832,0.6833,0.6814,0.6814,0.6814,0.6814,0,0,0.6853,0.6848,0.685,0.6849,0.6846,0.6848,0.6851,0.6851,0.6851,0.685,0.6852,0.6853,0.6848,0.6848,0.6843,0.6845,0.6854,0.6839,0.6839,0.6841,0.686,0.6863,0.6865,0.685,0.685,0.685,0.686,0,0.6867,0.6873,0.6868,0.6875,0.6877,0.6868,0.6871,0.6869,0.6865,0.6866,0.6862,0.6862,0.6856,0.6855,0.6857,0.6852,0.6857,0.6852,0.685,0.6851,0.6851,0.6867,0.6871,0.688,0.6861,0.6861,0.6861,0,0.6885,0.6884,0.6891,0.6886,0.6887,0.689,0.6888,0.6889,0.6885,0.6883,0.6881,0.6876,0.6877,0.687,0.6872,0.6868,0.6867,0.6864,0.6865,0.6864,0.6856,0.6865,0.6883,0.6884,0.6863,0.6863,0.6863,0,0.69,0.6901,0.6905,0.6904,0.6899,0.6901,0.6899,0.6895,0.6895,0.6893,0.6892,0.6891,0.689,0.6888,0.6881,0.6877,0.6883,0.6876,0.688,0.688,0.6881,0.6881,0.6898,0.6882,0.6882,0.6882,0.6882,0,0.6916,0.692,0.6912,0.6914,0.6918,0.6911,0.6915,0.6912,0.6908,0.6909,0.6902,0.6902,0.6894,0.6893,0.6888,0.6889,0.6889,0.6886,0.6884,0.6886,0.6886,0.6885,0.6884,0.6882,0.6882,0.6882,0.6882,0,0.6934,0.6928,0.6932,0.6926,0.6925,0.6928,0.6923,0.6924,0.692,0.692,0.692,0.6913,0.6912,0.6905,0.6902,0.6899,0.6901,0.6899,0.6903,0.6901,0.6905,0.6905,0.6921,0.6922,0.6906,0.6907,0.6907,0,0.6944,0.6946,0.6941,0.6941,0.6939,0.694,0.6939,0.6932,0.6931,0.6927,0.6928,0.6926,0.6925,0.6923,0.6917,0.6914,0.6911,0.6917,0.691,0.6912,0.691,0.6909,0.6909,0.6918,0.6918,0.6918,0.6919,0,0.6961,0.6958,0.6958,0.6956,0.6955,0.6954,0.6951,0.6952,0.6944,0.6943,0.6942,0.694,0.6937,0.6935,0.6931,0.6927,0.6921,0.6921,0.6921,0.6923,0.6924,0.6922,0.6905,0.692,0.692,0.692,0.692,0.692,0.6975,0.6976,0.6973,0.6972,0.6969,0.6967,0.6968,0.6963,0.6962,0.6959,0.6955,0.6953,0.6949,0.6943,0.694,0.6938,0.6935,0.6936,0.6936,0.6936,0.6937,0.6925,0.6937,0.6937,0.6937,0.6937,0.6937,0,0.6991,0.6988,0.6988,0.6984,0.6983,0.6978,0.6975,0.6974,0.6973,0.697,0.6968,0.6965,0.6963,0.6956,0.6953,0.6953,0.6949,0.6952,0.6951,0.695,0.694,0.694,0.6954,0.6954,0.6954,0.6954,0.6954,0.6954,0.7,0.7002,0.6998,0.6998,0.6995,0.6994,0.6992,0.699,0.6986,0.6984,0.6982,0.6978,0.6973,0.6969,0.6966,0.6964,0.6962,0.6965,0.6962,0.6953,0.6951,0.695,0.6949,0.6965,0.6965,0.6972,0.6972,0.6973]}]]